Wind_Speed
19 15 15 15 14 10 10 9 6 13 13 15 18 21 21 24 20 20 10 10 7 7 7 6 9 7 6 3 3 3 4 4 8 7 4 5 5 2 1 6 3 4 3 2 30
15 12 14 12 10 8 8 6 3 8 10 12 13 14 14 25 19 6 9 11 8 8 8 11 5 10 3 3 1 4 4 8 3 1 4 5 4 6 4 3 4 3 5 15 28
16 12 11 12 11 10 7 2 7 9 9 7 10 10 15 20 1 6 11 9 8 8 9 10 7 4 3 3 1 2 4 3 2 2 3 5 3 2 10 1 5 6 6 9 17
23 18 13 18 14 10 5 3 7 10 20 20 23 31 28 12 5 3 8 7 8 9 9 8 3 4 5 6 2 6 4 3 5 5 2 3 4 4 2 2 1 7 11 9 8
25 24 24 21 11 12 2 7 14 20 29 33 28 30 20 4 5 3 3 7 9 10 9 5 4 4 7 7 4 4 3 5 3 6 6 5 4 2 1 2 6 11 8 8 8
23 26 27 23 12 10 17 14 26 27 32 32 22 25 13 3 7 3 5 8 10 10 8 6 5 1 6 4 4 4 6 3 7 6 5 5 2 1 2 4 7 9 8 6 7
21 23 28 27 22 17 22 33 26 28 24 24 23 19 4 7 5 7 10 10 15 8 5 6 4 2 5 7 5 4 6 5 8 7 4 3 1 4 1 4 6 6 5 6 8
22 21 24 26 20 19 18 17 20 19 16 13 14 9 5 5 8 8 7 10 12 5 4 5 9 7 4 5 6 5 5 5 4 6 3 3 5 2 2 8 6 6 5 6 6
20 19 20 20 14 12 13 13 8 6 2 2 7 6 1 4 3 7 5 7 8 6 6 11 6 5 5 6 5 7 5 4 1 2 2 2 3 4 2 4 4 5 6 6 6
17 18 17 13 10 7 3 1 5 7 7 5 2 3 4 3 3 5 5 6 4 4 5 7 6 4 4 4 6 5 6 3 4 1 2 1 4 3 2 1 5 6 5 6 6
13 16 15 16 5 9 9 3 6 4 8 4 1 2 3 4 8 11 6 4 5 9 5 5 8 4 1 2 3 7 6 5 1 2 2 2 3 6 7 4 7 7 6 6 7
11 15 14 10 13 13 16 6 2 2 4 6 2 3 2 2 8 8 9 6 6 5 2 7 4 2 3 1 6 6 7 3 2 2 2 4 5 3 4 3 3 1 3 2 4
10 13 12 5 8 10 18 7 4 4 3 6 3 4 4 7 4 7 5 4 7 6 7 6 1 2 4 6 8 5 7 4 4 2 3 4 5 1 2 2 4 5 2 3 4
12 13 13 7 2 5 4 8 5 4 5 10 9 5 4 1 6 3 4 4 7 6 4 7 5 4 5 7 3 4 2 4 6 4 3 4 4 3 1 1 2 3 4 4 5
10 12 11 9 6 3 3 6 3 2 5 8 8 6 5 6 2 8 11 8 5 4 3 2 4 7 9 3 2 4 2 4 3 5 3 5 3 5 1 4 3 1 1 2 2
8 10 9 4 4 4 8 4 1 6 2 7 5 6 4 7 4 2 5 8 4 7 8 3 2 4 2 3 4 6 5 7 5 3 3 2 4 4 4 5 3 1 1 1 3
6 9 8 6 4 9 6 2 5 6 4 6 3 4 4 7 6 5 5 6 3 5 4 6 4 4 4 4 4 5 5 3 4 4 5 3 2 8 4 3 5 7 4 2 2
7 8 5 5 7 7 2 5 9 4 3 3 2 3 5 5 4 5 3 4 6 4 4 5 5 5 6 3 3 3 4 5 6 3 4 4 5 5 5 3 3 5 5 4 3
5 6 4 7 7 5 4 6 6 6 3 2 2 6 5 4 3 5 4 2 1 3 4 5 3 3 3 2 2 2 1 3 7 3 3 3 7 7 3 3 4 6 5 5 3
4 4 4 7 7 2 5 4 2 4 1 1 3 3 2 4 3 4 3 2 2 2 1 5 4 2 2 1 3 2 5 4 3 2 4 5 5 5 6 8 7 6 7 5 2
4 2 4 7 4 5 3 1 2 2 2 2 2 3 2 2 3 2 1 2 4 4 4 3 3 3 2 3 6 2 1 4 3 3 4 2 6 6 9 9 10 8 6 5 5
2 3 7 5 4 2 2 2 4 4 5 3 3 2 2 2 3 2 2 1 5 2 3 2 4 3 1 1 1 1 3 5 4 4 1 2 6 1 5 8 8 7 5 5 6
2 2 4 3 3 3 0 2 2 3 4 5 4 4 2 2 2 2 2 2 5 3 2 1 2 3 6 4 3 3 4 3 4 3 6 5 5 4 4 6 6 7 6 4 6
2 3 4 4 1 5 2 3 2 1 2 2 2 2 3 3 5 3 1 2 3 2 4 3 3 4 6 4 4 4 5 5 5 3 4 6 5 2 5 8 6 6 6 6 4
3 1 2 1 4 3 3 1 2 2 4 4 2 3 3 2 2 2 2 2 4 5 3 3 3 2 5 6 4 5 6 7 9 7 7 5 10 7 11 11 9 8 6 7 5
2 2 3 1 1 2 2 4 4 1 2 1 1 1 2 3 3 5 4 3 3 2 2 3 0 2 4 2 1 6 9 10 12 11 13 10 17 7 5 4 6 8 7 7 5
2 1 3 3 1 3 2 4 6 6 1 0 2 3 1 1 2 2 1 2 2 6 3 2 4 2 4 4 7 8 10 14 5 6 8 11 13 7 6 8 9 8 8 7 6
Wind_Direction
329 334 339 322 319 318 320 300 223 194 206 227 225 221 220 208 153 160 185 195 189 176 181 178 175 184 158 124 132 134 74 170 182 166 170 179 121 35 61 99 50 9 105 330 160
345 1 341 331 349 340 345 356 192 188 195 203 211 214 202 204 149 194 204 175 181 182 168 169 178 159 99 125 55 93 117 200 164 219 165 160 109 137 98 65 31 20 31 132 153
17 4 1 5 351 1 2 28 105 121 160 145 143 170 126 131 4 211 195 180 181 180 162 170 182 159 104 120 128 124 143 157 20 320 193 132 101 84 122 266 201 190 155 141 154
33 23 356 351 358 356 348 69 115 97 110 115 121 122 111 109 176 192 196 196 178 175 143 150 136 129 116 125 93 95 52 42 344 334 107 109 126 78 33 183 358 173 153 150 161
32 27 21 20 21 15 6 144 120 116 113 101 109 119 101 342 259 253 181 183 179 170 158 141 147 141 132 122 98 81 119 59 346 46 56 80 53 115 189 78 55 126 143 163 166
31 33 29 31 40 31 76 149 119 120 116 112 124 121 74 266 280 271 174 171 181 168 155 144 178 195 95 78 81 113 92 79 31 20 47 88 32 77 198 111 91 146 166 177 186
29 41 36 31 44 61 82 91 111 125 132 126 113 108 156 243 319 138 156 177 169 173 151 182 177 51 134 92 160 125 73 39 25 353 38 348 341 237 124 121 130 162 170 184 212
25 43 47 31 56 72 91 88 106 118 126 140 144 151 209 334 100 117 160 158 177 195 138 162 130 101 68 118 42 71 55 98 332 358 344 78 262 12 127 141 152 177 195 206 219
23 34 39 54 31 57 101 94 79 98 116 288 193 199 257 335 62 63 133 140 145 145 98 116 73 86 38 92 51 15 133 104 322 60 317 90 243 25 83 127 178 212 229 233 248
20 28 33 58 35 19 18 97 321 327 304 297 11 96 20 313 6 48 78 107 111 107 68 47 56 72 34 66 180 148 103 88 153 299 26 127 271 329 22 322 251 254 259 266 266
12 16 25 41 46 345 327 322 12 345 34 92 239 35 358 339 53 36 22 73 42 50 78 19 78 121 73 54 163 128 109 115 83 359 8 294 297 298 315 291 271 274 276 264 260
9 8 18 39 55 31 56 71 104 319 345 17 17 32 351 358 53 348 18 72 61 78 44 36 84 289 309 239 98 86 114 82 50 51 49 16 300 295 3 43 4 256 61 262 346
356 4 16 356 14 25 54 52 359 349 72 347 352 25 334 42 63 340 24 71 70 56 52 97 358 7 82 45 96 36 117 156 150 83 66 346 329 331 37 60 52 41 33 15 354
346 357 5 358 0 22 49 6 0 12 67 327 347 6 358 13 50 352 24 103 41 112 80 77 338 73 75 73 53 95 324 108 108 87 190 25 265 283 234 26 49 38 27 19 9
344 354 358 22 335 35 351 337 342 76 63 299 316 307 345 83 174 355 25 38 78 35 85 298 29 40 58 348 330 150 93 82 87 92 79 356 68 264 358 238 223 94 354 68 60
338 353 357 352 342 339 332 332 100 45 337 336 321 352 31 22 27 29 49 52 139 65 43 74 57 59 84 32 63 146 77 48 56 68 29 341 120 268 195 208 184 178 48 137 72
335 352 3 356 331 328 329 89 39 81 277 334 342 16 66 16 34 47 32 31 96 85 11 5 8 347 43 70 27 68 65 13 3 6 220 334 53 243 241 216 187 174 172 120 90
328 335 341 351 335 338 342 50 67 249 264 278 341 36 64 8 32 26 63 42 25 77 98 119 341 7 339 56 145 63 127 148 197 191 261 3 236 249 213 292 148 159 161 151 131
324 330 323 340 343 350 70 54 174 211 270 11 6 66 3 12 97 69 55 68 339 8 120 124 14 319 41 11 67 178 73 138 104 38 41 248 287 301 195 150 157 172 181 188 157
334 343 339 342 347 34 72 129 165 208 264 205 86 39 90 349 58 67 27 317 357 61 141 194 82 359 334 43 32 75 156 65 3 143 257 289 278 236 208 197 194 201 213 215 177
335 48 343 344 348 53 94 170 181 242 211 95 136 95 98 63 67 53 4 358 4 351 56 134 99 278 22 198 179 92 51 55 116 136 174 290 264 214 203 190 187 208 207 197 106
36 26 350 2 45 21 82 29 335 2 6 38 99 83 108 73 68 96 111 51 337 334 62 12 120 142 173 346 197 185 208 158 129 222 144 151 273 352 242 190 181 199 188 99 111
82 276 349 6 90 3 333 86 101 52 30 13 26 15 35 94 89 85 89 331 8 55 106 108 26 44 354 2 0 231 207 157 115 91 199 153 260 8 98 152 195 163 141 120 130
56 21 334 44 113 120 102 16 54 5 88 92 52 22 45 40 18 147 117 3 20 78 86 93 116 167 191 200 137 215 210 194 156 139 192 228 278 253 207 199 197 171 153 146 141
35 282 187 1 348 93 71 113 107 357 20 1 46 114 122 101 48 79 62 8 20 1 41 86 197 179 242 231 208 223 209 189 201 208 196 229 217 217 210 205 196 181 157 157 160
88 94 3 96 322 101 355 198 164 204 145 302 45 353 34 148 181 210 150 197 210 43 84 5 292 47 301 32 230 265 239 220 224 233 248 259 268 211 249 163 174 187 167 176 177
36 53 94 318 46 102 228 181 204 141 241 121 172 112 107 167 114 55 99 93 150 155 150 99 125 79 271 350 328 298 234 216 205 213 207 224 247 175 201 201 189 178 178 176 176
Height
776 772 767 765 761 756 752 748 746 747 751 755 756 760 765 769 769 779 780 779 780 781 783 785 787 788 790 792 792 796 817 825 816 818 805 803 804 803 807 810 812 814 814 814 818
775 771 767 763 760 757 754 750 748 749 750 753 756 760 765 765 766 778 779 777 779 780 782 785 788 788 792 792 795 803 818 812 806 805 806 804 802 807 810 814 817 816 817 818 821
776 769 767 764 761 757 755 752 752 752 752 754 755 760 763 763 777 778 778 776 778 779 781 784 786 786 791 791 796 802 810 805 807 806 803 805 808 806 814 817 815 817 819 821 823
778 772 767 764 761 758 756 755 755 755 755 755 757 762 766 777 793 774 775 775 776 779 780 783 787 790 795 798 796 807 808 807 810 808 803 806 806 811 811 810 808 811 815 820 823
781 775 771 764 762 755 754 756 758 758 759 760 764 763 774 784 778 773 773 773 775 779 779 782 786 789 794 797 799 806 808 809 811 809 810 808 814 812 811 811 811 814 819 822 825
784 780 774 768 764 761 754 755 760 762 764 765 771 773 775 790 773 771 770 771 775 778 778 780 783 784 794 800 801 807 810 812 813 813 813 812 815 810 811 812 816 818 821 824 826
788 784 779 775 770 768 765 762 766 766 766 770 773 773 784 778 771 768 770 773 775 776 777 778 780 785 792 802 806 808 814 814 819 819 816 817 817 816 812 813 818 821 822 824 826
791 787 784 780 778 776 775 774 775 776 777 777 775 776 778 770 769 770 772 774 775 775 776 777 780 787 792 800 808 814 820 826 821 822 819 817 826 813 815 816 820 822 824 824 824
794 791 786 786 784 783 782 780 778 779 777 777 778 776 776 771 771 770 772 772 773 775 777 778 781 795 800 812 827 829 832 828 825 824 824 821 820 820 818 819 823 823 824 824 824
796 793 790 787 786 784 783 783 781 778 777 774 771 775 774 775 771 771 772 773 773 775 779 785 796 808 818 822 839 827 832 829 828 826 825 826 824 821 820 820 823 825 826 825 823
799 795 792 788 787 784 781 780 782 781 776 781 781 777 774 773 772 773 774 772 775 781 795 799 815 829 811 812 811 821 825 828 830 828 828 829 831 828 825 823 825 825 827 825 823
801 797 794 791 789 787 784 788 793 795 788 779 779 778 777 775 778 777 775 780 786 799 796 811 824 816 817 813 815 820 829 832 830 829 832 835 831 827 825 824 825 823 824 822 821
802 800 797 794 792 790 789 793 794 793 794 784 782 781 782 779 788 787 781 787 798 806 809 817 818 814 816 824 821 834 833 833 830 833 834 837 835 826 824 825 826 827 825 823 822
802 800 797 792 793 793 794 794 793 793 817 804 789 786 784 783 791 788 787 791 803 814 815 825 821 818 822 828 830 827 830 830 834 848 855 848 859 833 828 827 826 828 827 825 824
803 801 799 797 795 795 799 795 794 796 848 804 795 786 785 789 792 792 790 793 811 818 815 829 826 827 829 832 829 832 831 833 839 849 852 850 866 836 833 829 827 827 826 825 824
802 801 800 799 797 797 795 794 796 821 844 809 798 796 792 794 795 794 796 796 808 818 823 830 826 830 829 831 830 832 835 845 857 861 881 863 871 840 837 827 826 826 826 824 823
802 800 799 798 798 796 794 796 820 843 821 812 806 800 802 804 802 803 808 815 824 839 853 836 835 833 832 832 831 835 844 889 872 895 870 873 884 842 826 821 823 827 826 824 822
803 801 800 799 798 796 795 804 835 829 816 807 804 805 809 806 806 808 811 825 820 826 860 861 863 838 837 837 834 839 843 878 859 879 874 881 865 826 826 822 821 824 825 824 823
802 802 800 799 797 796 801 831 835 827 814 807 804 811 814 807 807 813 820 824 822 821 825 851 847 840 838 837 838 839 854 851 881 913 900 877 846 827 823 823 825 826 826 824 823
802 801 801 799 797 797 812 821 816 816 810 808 810 809 814 813 812 815 820 822 820 818 819 830 850 841 839 837 839 838 848 857 877 865 856 870 850 838 826 826 826 827 826 824 823
803 803 800 798 798 804 831 825 812 808 807 807 811 811 814 813 814 821 826 824 822 818 818 825 832 848 842 843 844 847 849 855 859 864 864 854 843 826 820 821 823 824 824 823 824
805 812 799 797 811 824 823 813 811 811 809 807 809 809 810 813 818 820 821 824 825 821 823 827 841 864 838 840 840 840 841 849 857 850 873 872 844 814 816 818 820 823 821 823 825
809 809 799 798 825 832 813 812 813 813 814 813 812 811 809 814 817 821 823 824 824 823 824 825 838 867 846 846 844 843 843 844 855 862 866 859 829 818 820 820 819 821 823 825 827
811 818 807 806 816 816 814 816 815 814 813 812 814 812 813 816 821 823 824 825 824 825 824 827 842 837 845 832 842 842 842 844 842 873 848 849 822 814 818 819 819 821 822 825 827
815 819 818 820 816 814 814 815 817 816 816 815 814 814 815 820 821 824 828 829 828 829 830 833 835 847 841 839 835 832 831 843 844 836 834 819 830 813 814 816 817 818 822 825 826
817 818 821 821 818 812 817 816 817 817 816 817 818 817 816 819 819 823 827 830 827 833 832 842 842 843 854 836 839 840 836 837 834 825 828 821 814 810 808 812 816 817 821 823 823
816 817 819 823 821 818 819 815 815 815 818 817 817 820 820 822 823 825 826 829 828 833 839 841 849 859 845 849 844 834 820 816 818 822 812 819 794 804 808 810 811 816 818 820 822